Location: York
(31.8935°S, 116.7682°E)
Time: 04:03:12
(UTC+08:00)

X-37B - Pass Details

Date: 20 May 2021
Orbit: 386 x 389 km, 45.0° (Epoch: 10 June)

Event Time Altitude Azimuth Distance (km) Brightness Sun altitude
Exits shadow 04:56:11 11° 143° (SE) 1,392 3.7 -25.5°
Drops below altitude 10° 04:56:26 10° 138° (SE) 1,432 3.8 -25.5°
Sets 04:59:32 0° 106° (ESE) 2,284 5.5 -24.8°
